Location: Artiguedieu
(43.5000°N, 0.5454°E)
Time: 12:58:30
(UTC+00:00)

Transit 4A - All Passes

Search period start: 04 August 2021 00:00
Search period end: 14 August 2021 00:00
Orbit: 872 x 972 km, 66.8° (Epoch: 03 August)

Date Brightness Start Highest point End Pass type
(mag) Time Alt. Az. Time Alt. Az. Time Alt. Az.
04 Aug - 00:46:07 10° W 00:50:51 25° NW 00:55:35 10° NNE visible
04 Aug - 06:14:03 10° N 06:18:20 20° NE 06:22:38 10° E daylight
04 Aug - 07:59:33 10° NNW 08:05:28 90° SW 08:11:29 10° SSE daylight
04 Aug - 09:48:00 10° WNW 09:50:59 14° WSW 09:53:59 10° SW daylight
04 Aug - 21:24:21 10° SE 21:27:42 16° ESE 21:31:02 10° ENE visible
04 Aug - 23:07:22 10° SSW 23:13:16 83° WNW 23:19:09 10° NNE visible
05 Aug - 00:56:29 10° W 01:00:31 19° NW 01:04:33 10° N visible
05 Aug - 06:23:03 10° NNW 06:27:58 27° NE 06:32:56 10° E daylight
05 Aug - 08:08:55 10° NW 08:14:44 63° WSW 08:20:38 10° SSE daylight
05 Aug - 21:32:07 10° SSE 21:36:43 24° ESE 21:41:16 10° NE visible
05 Aug - 23:16:49 10° SW 23:22:37 58° NW 23:28:23 10° NNE visible
06 Aug - 01:07:11 10° WNW 01:10:16 14° NNW 01:13:21 10° N visible
06 Aug - 04:48:29 10° NNE 04:49:19 10° NNE 04:50:08 10° NNE daylight
06 Aug - 06:32:06 10° NNW 06:37:30 36° NE 06:42:59 10° ESE daylight
06 Aug - 08:18:24 10° NW 08:23:55 42° WSW 08:29:30 10° S daylight
06 Aug - 21:40:30 10° S 21:45:47 36° ESE 21:51:03 10° NE visible
06 Aug - 23:26:32 10° WSW 23:32:03 41° NW 23:37:33 10° NNE visible
07 Aug - 01:18:25 10° NW 01:20:06 11° NNW 01:21:47 10° N visible
07 Aug - 04:56:28 10° N 04:59:11 13° NNE 05:01:54 10° ENE daylight
07 Aug - 06:41:14 10° NNW 06:46:59 51° NE 06:52:47 10° SE daylight
07 Aug - 08:28:05 10° NW 08:33:02 28° WSW 08:38:04 10° SSW daylight
07 Aug - 21:49:15 10° S 21:54:57 53° ESE 22:00:37 10° NE visible
07 Aug - 23:36:29 10° WSW 23:41:33 30° NW 23:46:39 10° NNE visible
08 Aug - 05:05:12 10° N 05:08:57 17° NE 05:12:44 10° ENE daylight
08 Aug - 06:50:27 10° NNW 06:56:21 72° ENE 07:02:21 10° SE daylight
08 Aug - 08:38:05 10° WNW 08:42:04 19° WSW 08:46:08 10° SSW daylight
08 Aug - 20:17:02 10° ESE 20:18:49 11° E 20:20:37 10° E visible
08 Aug - 21:58:18 10° SSW 22:04:11 79° ESE 22:10:01 10° NNE visible
08 Aug - 23:46:40 10° W 23:51:10 22° NW 23:55:40 10° N visible
09 Aug - 05:14:07 10° N 05:18:39 22° NE 05:23:14 10° E daylight
09 Aug - 06:59:45 10° NNW 07:05:39 80° WSW 07:11:40 10° SSE daylight
09 Aug - 08:48:55 10° W 08:51:03 12° WSW 08:53:13 10° WSW daylight
09 Aug - 20:23:55 10° SSE 20:27:47 18° ESE 20:31:38 10° ENE visible
09 Aug - 22:07:36 10° SW 22:13:29 73° WNW 22:19:19 10° NNE visible
09 Aug - 23:57:08 10° WNW 00:00:52 17° NW 00:04:35 10° N visible
10 Aug - 05:23:08 10° NNW 05:28:15 30° NE 05:33:26 10° ESE daylight
10 Aug - 07:09:09 10° NW 07:14:53 54° WSW 07:20:44 10° S daylight
10 Aug - 20:31:57 10° SSE 20:36:50 28° ESE 20:41:40 10° NE visible
10 Aug - 22:17:09 10° SW 22:22:51 51° NW 22:28:32 10° NNE visible
11 Aug - 00:07:59 10° WNW 00:10:38 13° NNW 00:13:19 10° N visible
11 Aug - 03:47:58 10° N 03:49:43 11° NNE 03:51:29 10° NE visible
11 Aug - 05:32:14 10° NNW 05:37:46 41° NE 05:43:24 10° ESE daylight
11 Aug - 07:18:42 10° NW 07:24:03 37° WSW 07:29:30 10° S daylight
11 Aug - 20:40:28 10° S 20:45:56 41° ESE 20:51:21 10° NE visible
11 Aug - 22:26:56 10° WSW 22:32:19 36° NW 22:37:41 10° NNE visible
12 Aug - 00:19:45 10° NNW 00:20:30 10° NNW 00:21:15 10° NNW visible
12 Aug - 03:56:25 10° N 03:59:34 14° NNE 04:02:42 10° ENE visible
12 Aug - 05:41:23 10° NNW 05:47:12 58° NE 05:53:06 10° SE daylight
12 Aug - 07:28:27 10° NW 07:33:09 25° WSW 07:37:54 10° SSW daylight
12 Aug - 20:49:19 10° SSW 20:55:06 61° ESE 21:00:51 10° NE visible
12 Aug - 22:36:58 10° W 22:41:52 27° NW 22:46:45 10° NNE visible
13 Aug - 04:05:14 10° N 04:09:18 19° NE 04:13:25 10° E visible
13 Aug - 05:50:38 10° NNW 05:56:34 82° ENE 06:02:35 10° SSE daylight
13 Aug - 07:38:38 10° WNW 07:42:10 16° WSW 07:45:44 10° SW daylight
13 Aug - 19:16:07 10° SE 19:18:53 14° ESE 19:21:38 10° ENE daylight
13 Aug - 20:58:28 10° SSW 21:04:22 89° ESE 21:10:13 10° NNE visible
13 Aug - 22:47:14 10° W 22:51:29 20° NW 22:55:44 10° N visible
